Location: Kapla
(46.2483°N, 15.0094°E)
Time: 15:19:36
(UTC+00:00)

Cosmos 2218 Rocket - Pass Details

Date: 03 March 2021
Orbit: 955 x 1007 km, 82.9° (Epoch: 17 April)

Event Time Altitude Azimuth Distance (km) Brightness Sun altitude
Rises 18:47:17 0° 183° (S) 3,719 6.9 -21.1°
Reaches altitude 10° 18:49:48 10° 183° (S) 2,775 6.3 -21.5°
Maximum altitude 18:56:12 83° 97° (E) 1,021 3.9 -22.6°
Drops below altitude 10° 19:02:37 10° 10° (N) 2,788 6.4 -23.7°
Sets 19:05:09 0° 10° (N) 3,737 7.1 -24.1°
